This demonstration page uses our WeatherBlox Daily Observations layout. Learn more.

Left ArrowRight Arrow

47.50024, -111.30081

Hourly Observations for January 5, 2016

Temp ( °F °C ) Dew Point ( °F °C ) Humidity (%) Winds ( mph kmh ) Pressure ( in mb ) Visibility ( mi km ) Precip ( " mm )
12:53 am 00:53 Clear 19 -7.2 15 -9.4 84 84 Calm 29.93 1014 10 16 0.00 0.00
1:53 am 01:53 Clear 15 -9.4 12 -11.1 88 88 Calm 29.95 1014 10 16 0.00 0.00
2:53 am 02:53 Cloudy 18 -7.8 15 -9.4 88 88 NNW 3 6 29.94 1014 10 16 0.00 0.00
3:53 am 03:53 Cloudy 21 -6.1 17 -8.3 85 85 W 3 6 29.94 1014 10 16 0.00 0.00
4:53 am 04:53 Cloudy 21 -6.1 18 -7.8 88 88 Calm 29.95 1014 10 16 0.00 0.00
5:53 am 05:53 Partly Cloudy 19 -7.2 15 -9.4 84 84 Calm 29.94 1014 9 14 0.00 0.00
6:34 am 06:34 Clear with Mist and Fog 18 -8 16 -9 93 93 W 5 7 30.03 1017 2 3 0.00 0.00
6:41 am 06:41 Clear with Mist and Fog 16 -8.9 15 -9.4 96 96 WNW 5 7 30.03 1017 3 5 0.00 0.00
6:53 am 06:53 Clear with Mist and Fog 15 -9.4 13 -10.6 91 91 WNW 5 7 29.97 1015 3 5 0.00 0.00
6:56 am 06:56 Clear with Mist and Fog 16 -9 14 -10 93 93 W 3 6 30.03 1017 2 2 0.00 0.00
6:59 am 06:59 Clear with Mist and Fog 15 -9.4 13 -10.6 91 91 WNW 3 6 30.03 1017 1 1 0.00 0.00
7:07 am 07:07 Clear with Mist and Fog 16 -8.9 15 -9.4 96 96 WNW 5 7 30.03 1017 2 2 0.00 0.00
7:10 am 07:10 Clear with Mist and Fog 16 -9 14 -10 93 93 WNW 5 7 30.03 1017 3 5 0.00 0.00
7:23 am 07:23 Clear with Mist and Fog 16 -8.9 14 -10 92 92 WNW 5 7 30.03 1017 2 3 0.00 0.00
7:31 am 07:31 Clear with Mist and Fog 16 -8.9 14 -10 92 92 WNW 5 7 30.03 1017 1 2 0.00 0.00
7:35 am 07:35 Clear with Mist and Fog 16 -8.9 13 -10.6 88 88 WNW 6 9 30.03 1017 2 3 0.00 0.00
7:47 am 07:47 Clear with Mist and Fog 16 -9 12 -11 86 86 W 6 9 30.03 1017 1 2 0.00 0.00
7:53 am 07:53 Clear with Mist and Fog 15 -9.4 13 -10.6 91 91 WNW 6 9 29.97 1015 1 2 0.00 0.00
8:20 am 08:20 Sunny with Freezing Fog 14 -10 12 -11 92 92 WNW 3 6 30.06 1018 0 0 0.00 0.00
8:53 am 08:53 Sunny with Freezing Fog 18 -7.8 16 -8.9 92 92 Calm 29.96 1015 1 1 0.00 0.00
9:07 am 09:07 Sunny with Mist and Fog 17 -8.3 14 -10 88 88 Calm 30.03 1017 3 5 0.00 0.00
9:53 am 09:53 Sunny 16 -8.9 14 -10 92 92 Calm 29.98 1015 7 11 0.00 0.00
10:53 am 10:53 Sunny 20 -6.7 18 -7.8 92 92 Calm 29.98 1015 8 13 0.00 0.00
11:53 am 11:53 Sunny 20 -6.7 19 -7.2 96 96 Calm 29.95 1014 8 13 0.00 0.00
12:53 pm 12:53 Sunny 26 -3.3 20 -6.7 78 78 Calm 29.92 1013 8 13 0.00 0.00
1:53 pm 13:53 Sunny 25 -3.9 19 -7.2 78 78 Calm 29.92 1013 10 16 0.00 0.00
2:53 pm 14:53 Sunny 25 -3.9 19 -7.2 78 78 ESE 3 6 29.90 1013 10 16 0.00 0.00
3:53 pm 15:53 Sunny 24 -4.4 17 -8.3 75 75 NNE 6 9 29.90 1012 10 16 0.00 0.00
4:53 pm 16:53 Clear 19 -7.2 14 -10 81 81 ENE 6 9 29.92 1013 10 16 0.00 0.00
5:53 pm 17:53 Clear 19 -7.2 16 -8.9 88 88 ESE 5 7 29.93 1014 9 14 0.00 0.00
6:53 pm 18:53 Mostly Clear 17 -8.3 14 -10 88 88 E 6 9 29.93 1014 8 13 0.00 0.00
7:53 pm 19:53 Clear 17 -8.3 14 -10 88 88 E 3 6 29.93 1014 8 13 0.00 0.00
8:53 pm 20:53 Cloudy 17 -8.3 14 -10 88 88 ENE 3 6 29.93 1014 8 13 0.00 0.00
9:53 pm 21:53 Partly Cloudy with Mist and Fog 15 -9.4 12 -11.1 88 88 Calm 29.94 1014 6 10 0.00 0.00
10:53 pm 22:53 Clear with Mist and Fog 12 -11.1 10 -12.2 92 92 Calm 29.94 1014 6 10 0.00 0.00
11:53 pm 23:53 Clear 14 -10 12 -11.1 92 92 E 3 6 29.93 1014 7 11 0.00 0.00

Powered by AerisWeather